This demonstration page uses our WeatherBlox Daily Observations layout. Learn more.

Left ArrowRight Arrow

41.12389, -100.76542

Hourly Observations for July 9, 2022

Temp ( °F °C ) Dew Point ( °F °C ) Humidity (%) Winds ( mph kmh ) Pressure ( in mb ) Visibility ( mi km ) Precip ( " mm )
12:53 am 00:53 Clear 70 21.1 66 18.9 87 87 E 8 13 30.13 1020 10 16 0.00 0.00
1:53 am 01:53 Clear 68 20 65 18.3 90 90 ESE 3 6 30.12 1020 10 16 0.00 0.00
2:53 am 02:53 Clear 67 19.4 65 18.3 93 93 ESE 3 6 30.12 1020 10 16 0.00 0.00
3:53 am 03:53 Clear 67 19.4 64 17.8 91 91 Calm 30.11 1020 10 16 0.00 0.00
4:53 am 04:53 Clear 66 18.9 64 17.8 93 93 E 6 9 30.11 1020 8 13 0.00 0.00
5:53 am 05:53 Clear with Mist and Fog 66 18.9 64 17.8 93 93 ESE 7 11 30.11 1020 6 10 0.00 0.00
6:53 am 06:53 Sunny with Mist and Fog 66 18.9 64 17.8 93 93 E 5 7 30.12 1020 6 10 0.00 0.00
7:53 am 07:53 Sunny 72 22.2 66 18.9 82 82 SE 6 9 30.14 1021 10 16 0.00 0.00
8:53 am 08:53 Sunny 76 24.4 67 19.4 74 74 SSE 10 17 30.14 1021 10 16 0.00 0.00
9:53 am 09:53 Sunny 80 26.7 67 19.4 64 64 SSE 10 17 30.13 1020 10 16 0.00 0.00
10:53 am 10:53 Sunny 83 28.3 68 20 61 61 SSE 12 19 30.11 1020 10 16 0.00 0.00
11:53 am 11:53 Sunny 87 30.6 68 20 53 53 S 14 22 30.10 1019 10 16 0.00 0.00
12:53 pm 12:53 Sunny 90 32.2 68 20 48 48 S 13 20 30.08 1019 10 16 0.00 0.00
1:53 pm 13:53 Sunny 93 33.9 68 20 44 44 SSE 12 19 30.06 1018 10 16 0.00 0.00
2:53 pm 14:53 Sunny 96 35.6 68 20 40 40 S 16 26 30.04 1017 10 16 0.00 0.00
3:53 pm 15:53 Sunny 97 36.1 69 20.6 40 40 SSE 13 20 30.01 1016 10 16 0.00 0.00
4:53 pm 16:53 Sunny 97 36.1 70 21.1 42 42 SSE 9 15 29.99 1016 10 16 0.00 0.00
5:53 pm 17:53 Sunny 97 36.1 69 20.6 40 40 SE 15 24 29.97 1015 10 16 0.00 0.00
6:53 pm 18:53 Sunny 95 35 68 20 41 41 SSE 15 24 29.97 1015 10 16 0.00 0.00
7:53 pm 19:53 Sunny 89 31.7 69 20.6 52 52 SE 13 20 29.97 1015 10 16 0.00 0.00
8:53 pm 20:53 Sunny 87 30.6 69 20.6 55 55 ESE 12 19 29.96 1015 10 16 0.00 0.00
9:53 pm 21:53 Clear 85 29.4 68 20 57 57 SE 10 17 29.97 1015 10 16 0.00 0.00
10:53 pm 22:53 Clear 83 28.3 67 19.4 59 59 ESE 12 19 29.98 1015 10 16 0.00 0.00
11:53 pm 23:53 Clear 81 27.2 67 19.4 62 62 ESE 8 13 29.98 1015 10 16 0.00 0.00

Powered by AerisWeather